Weather History for KCWI - January, 2011

Change the Weather History Date:

Friday, January 7, 2011

  Actual Average (KDVN) Record (KDVN)
Temperature  
Mean Temperature 19 °F 21 °F  
Max Temperature 21 °F 30 °F - ()
Min Temperature 17 °F 13 °F - ()
Degree Days  
Heating Degree Days 46 44  
Month to date heating degree days 307  
Since 1 July heating degree days 2887  
Cooling Degree Days 0 0  
Month to date cooling degree days 0  
Year to date cooling degree days 0  
Moisture  
Dew Point 11 °F    
Average Humidity 72    
Maximum Humidity 93    
Minimum Humidity 63    
Precipitation  
Precipitation 0.00 in 0.03 in - ()
Month to date precipitation 0.19  
Year to date precipitation 0.19  
Snow  
Snow 0.00 in - - ()
Month to date snowfall  
Since 1 July snowfall  
Snow Depth -    
Sea Level Pressure  
Sea Level Pressure 29.54 in    
Wind  
Wind Speed 10 mph (NW)    
Max Wind Speed 24 mph    
Max Gust Speed 31 mph    
Visibility 10 miles    
Events      
T = Trace of Precipitation, MM = Missing Value Source: NWS Daily Summary

Daily Weather History Graph

Daily Weather History Graph

Search for Another Location

Airport or City:

Trip Planner

Search our weather history database for the weather conditions in past years. The results will help you decide how hot, cold, wet, or windy it might be!

Date:

Astronomy

Jan. 07, 2011 Rise Set
Actual Time 7:28 AM CST 4:46 PM CST
Civil Twilight 6:57 AM CST 5:17 PM CST
Nautical Twilight 6:22 AM CST 5:52 PM CST
Astronomical Twilight 5:49 AM CST 6:26 PM CST
Moon 9:09 AM CST (1/7) 8:25 PM CST (1/7)
Length of Visible Light 10h 20m
Length of Day
9h 17m
Waxing Crescent, 11% of the Moon is Illuminated
Jan 7
Waxing Crescent
Jan 12
First Quarter
Jan 19
Full
Jan 26
Last Quarter
Feb 2
New

Hourly Weather History & Observations

Time (CST) Temp. Windchill Dew Point Humidity Pressure Visibility Wind Dir Wind Speed Gust Speed Precip Events Conditions
12:15 AM 17.6 °F 6.4 °F 12.2 °F 79% 29.62 in 10.0 mi WNW 9.2 mph - N/A   Overcast
12:35 AM 17.6 °F 6.4 °F 10.4 °F 73% 29.61 in 10.0 mi WNW 9.2 mph - N/A   Overcast
12:55 AM 17.6 °F 7.3 °F 10.4 °F 73% 29.60 in 10.0 mi WNW 8.1 mph - N/A   Overcast
1:15 AM 17.6 °F 7.3 °F 10.4 °F 73% 29.60 in 10.0 mi WNW 8.1 mph - N/A   Overcast
1:35 AM 17.6 °F 9.3 °F 10.4 °F 73% 29.59 in 10.0 mi NW 5.8 mph - N/A   Overcast
1:55 AM 17.6 °F 12.3 °F 10.4 °F 73% 29.59 in 10.0 mi NW 3.5 mph - N/A   Overcast
2:15 AM 17.6 °F 10.7 °F 10.4 °F 73% 29.59 in 10.0 mi NW 4.6 mph - N/A   Overcast
2:35 AM 17.6 °F 9.3 °F 10.4 °F 73% 29.59 in 10.0 mi WNW 5.8 mph - N/A   Overcast
2:55 AM 17.6 °F 12.3 °F 10.4 °F 73% 29.57 in 10.0 mi NW 3.5 mph - N/A   Overcast
3:15 AM 17.6 °F 10.7 °F 10.4 °F 73% 29.56 in 10.0 mi NW 4.6 mph - N/A   Overcast
3:35 AM 17.6 °F 8.2 °F 10.4 °F 73% 29.55 in 10.0 mi WNW 6.9 mph - N/A   Overcast
3:55 AM 17.6 °F 6.4 °F 10.4 °F 73% 29.55 in 10.0 mi WNW 9.2 mph - N/A   Overcast
4:35 AM 17.6 °F 8.2 °F 10.4 °F 73% 29.54 in 10.0 mi NW 6.9 mph - N/A   Overcast
4:55 AM 17.6 °F 8.2 °F 10.4 °F 73% 29.53 in 10.0 mi NW 6.9 mph - N/A   Overcast
5:15 AM 17.6 °F 8.2 °F 8.6 °F 68% 29.53 in 10.0 mi NW 6.9 mph - N/A   Overcast
5:35 AM 17.6 °F 8.2 °F 6.8 °F 63% 29.53 in 10.0 mi NNW 6.9 mph - N/A   Overcast
5:55 AM 17.6 °F 7.3 °F 8.6 °F 68% 29.53 in 10.0 mi NNW 8.1 mph - N/A   Overcast
6:15 AM 17.6 °F 8.2 °F 8.6 °F 68% 29.53 in 10.0 mi NNW 6.9 mph - N/A   Overcast
6:55 AM 17.6 °F 10.7 °F 8.6 °F 68% 29.50 in 10.0 mi NNW 4.6 mph - N/A   Overcast
7:35 AM 17.6 °F 8.2 °F 10.4 °F 73% 29.50 in 10.0 mi NW 6.9 mph - N/A   Overcast
7:55 AM 17.6 °F 8.2 °F 10.4 °F 73% 29.51 in 10.0 mi NW 6.9 mph - N/A   Overcast
8:15 AM 17.6 °F 6.4 °F 10.4 °F 73% 29.52 in 10.0 mi WNW 9.2 mph - N/A   Overcast
8:35 AM 17.6 °F 5.0 °F 8.6 °F 68% 29.53 in 10.0 mi NW 11.5 mph - N/A   Overcast
8:55 AM 17.6 °F 5.7 °F 10.4 °F 73% 29.53 in 10.0 mi WNW 10.4 mph - N/A   Overcast
9:15 AM 19.4 °F 6.0 °F 8.6 °F 63% 29.53 in 10.0 mi NW 13.8 mph - N/A   Overcast
9:35 AM 19.4 °F 7.2 °F 10.4 °F 68% 29.53 in 10.0 mi NW 11.5 mph - N/A   Overcast
9:55 AM 19.4 °F 7.2 °F 10.4 °F 68% 29.53 in 10.0 mi NW 11.5 mph - N/A   Overcast
10:15 AM 19.4 °F 5.0 °F 10.4 °F 68% 29.53 in 10.0 mi NW 16.1 mph - N/A   Overcast
10:35 AM 19.4 °F 5.5 °F 10.4 °F 68% 29.53 in 10.0 mi NW 15.0 mph - N/A   Overcast
10:55 AM 19.4 °F 5.5 °F 12.2 °F 74% 29.53 in 10.0 mi NW 15.0 mph 19.6 mph N/A   Overcast
11:15 AM 19.4 °F 5.0 °F 10.4 °F 68% 29.52 in 10.0 mi WNW 16.1 mph - N/A   Overcast
11:35 AM 21.2 °F 7.3 °F 10.4 °F 63% 29.52 in 10.0 mi NW 16.1 mph 21.9 mph N/A   Overcast
11:55 AM 19.4 °F 5.0 °F 10.4 °F 68% 29.51 in 10.0 mi WNW 16.1 mph - N/A   Overcast
12:15 PM 19.4 °F 4.1 °F 10.4 °F 68% 29.51 in 10.0 mi WNW 18.4 mph - N/A   Overcast
12:35 PM 19.4 °F 4.5 °F 12.2 °F 74% 29.51 in 10.0 mi NW 17.3 mph - N/A   Overcast
1:15 PM 21.2 °F 6.4 °F 12.2 °F 68% 29.50 in 10.0 mi WNW 18.4 mph - N/A   Overcast
1:35 PM 21.2 °F 6.4 °F 12.2 °F 68% 29.49 in 10.0 mi WNW 18.4 mph - N/A   Overcast
1:55 PM 21.2 °F 4.9 °F 12.2 °F 68% 29.50 in 10.0 mi WNW 23.0 mph - N/A   Overcast
2:15 PM 19.4 °F 2.1 °F 12.2 °F 74% 29.50 in 10.0 mi WNW 24.2 mph - N/A   Overcast
2:35 PM 19.4 °F 2.8 °F 12.2 °F 74% 29.50 in 10.0 mi WNW 21.9 mph 28.8 mph N/A   Mostly Cloudy
2:55 PM 19.4 °F 3.2 °F 12.2 °F 74% 29.51 in 8.0 mi WNW 20.7 mph 27.6 mph N/A   Overcast
3:15 PM 19.4 °F 3.6 °F 14.0 °F 80% 29.51 in 9.0 mi WNW 19.6 mph - N/A   Overcast
3:35 PM 19.4 °F 2.8 °F 10.4 °F 68% 29.52 in 10.0 mi WNW 21.9 mph - N/A   Overcast
3:55 PM 19.4 °F 2.1 °F 10.4 °F 68% 29.52 in 10.0 mi WNW 24.2 mph 31.1 mph N/A   Overcast
4:15 PM 19.4 °F 3.2 °F 10.4 °F 68% 29.53 in 10.0 mi WNW 20.7 mph - N/A   Overcast
4:35 PM 19.4 °F 4.5 °F 12.2 °F 74% 29.54 in 6.0 mi WNW 17.3 mph 27.6 mph N/A   Overcast
4:55 PM 19.4 °F 5.0 °F 10.4 °F 68% 29.54 in 10.0 mi NW 16.1 mph - N/A   Overcast
5:15 PM 19.4 °F 6.6 °F 12.2 °F 74% 29.54 in 7.0 mi WNW 12.7 mph 18.4 mph N/A   Overcast
5:35 PM 17.6 °F 6.4 °F 15.8 °F 93% 29.55 in 4.0 mi NW 9.2 mph - N/A   Overcast
5:55 PM 17.6 °F 2.7 °F 14.0 °F 86% 29.55 in 10.0 mi NW 16.1 mph - N/A   Overcast
6:15 PM 17.6 °F 3.2 °F 15.8 °F 93% 29.56 in 10.0 mi NW 15.0 mph - N/A   Overcast
6:35 PM 17.6 °F 3.2 °F 12.2 °F 79% 29.56 in 10.0 mi NW 15.0 mph 20.7 mph N/A   Mostly Cloudy
6:55 PM 17.6 °F 1.3 °F 12.2 °F 79% 29.57 in 10.0 mi NW 19.6 mph 24.2 mph N/A   Overcast
7:15 PM 17.6 °F 4.3 °F 12.2 °F 79% 29.57 in 10.0 mi NW 12.7 mph 21.9 mph N/A   Overcast
7:35 PM 17.6 °F 1.3 °F 10.4 °F 73% 29.57 in 10.0 mi NW 19.6 mph - N/A   Overcast
8:15 PM 15.8 °F 1.4 °F 12.2 °F 86% 29.58 in 9.0 mi NW 13.8 mph - N/A   Overcast
8:35 PM 15.8 °F 0.3 °F 10.4 °F 79% 29.59 in 10.0 mi NNW 16.1 mph 21.9 mph N/A   Overcast
8:55 PM 15.8 °F -1.9 °F 10.4 °F 79% 29.60 in 10.0 mi NNW 21.9 mph 28.8 mph N/A   Overcast
9:15 PM 15.8 °F -0.6 °F 8.6 °F 73% 29.61 in 10.0 mi North 18.4 mph 23.0 mph N/A   Overcast
9:35 PM 14.0 °F -3.4 °F 8.6 °F 79% 29.61 in 10.0 mi NNW 19.6 mph - N/A   Overcast
9:55 PM 14.0 °F -3.9 °F 8.6 °F 79% 29.62 in 10.0 mi North 20.7 mph 24.2 mph N/A   Overcast
10:15 PM 14.0 °F -2.0 °F 6.8 °F 73% 29.63 in 10.0 mi North 16.1 mph - N/A   Overcast
10:35 PM 12.2 °F -2.5 °F 3.2 °F 67% 29.63 in 10.0 mi NNW 12.7 mph 20.7 mph N/A   Overcast
10:55 PM 10.4 °F -5.4 °F 1.4 °F 67% 29.64 in 10.0 mi NNW 13.8 mph - N/A   Scattered Clouds
11:15 PM 10.4 °F -6.6 °F 3.2 °F 73% 29.65 in 10.0 mi NNW 16.1 mph 20.7 mph N/A   Clear
11:35 PM 10.4 °F -4.1 °F 1.4 °F 67% 29.66 in 10.0 mi NNW 11.5 mph - N/A   Clear
11:55 PM 10.4 °F -4.8 °F 3.2 °F 73% 29.66 in 10.0 mi NNW 12.7 mph - N/A   Scattered Clouds